Lid_Strength_Index
4 4 4 3 3 3 3 4 4 4 4 4 4 4 4 4 3 7 9 6 6 4 4 6 7 8 8 8 5 5 10 11 10 9 8 5 6 4 3 5 4 4 4 3 2
4 4 4 4 4 4 4 4 4 4 4 4 4 4 4 4 8 10 6 4 4 4 7 8 9 8 10 9 7 8 11 11 9 8 8 6 6 6 6 6 5 4 3 2 2
4 4 4 4 4 4 4 4 4 4 4 4 4 4 4 5 10 10 5 4 5 5 7 7 8 10 11 9 8 9 12 9 8 7 7 8 7 5 6 7 5 5 4 3 3
5 5 5 5 5 5 5 5 4 4 4 5 5 4 5 8 14 9 5 5 5 7 8 8 10 11 12 13 10 12 10 9 9 9 10 10 8 9 8 7 6 5 4 3 3
5 5 5 5 5 5 5 5 5 5 5 5 5 5 8 11 12 8 5 6 8 8 10 10 11 11 13 12 12 13 12 11 10 11 11 11 12 12 11 10 9 8 6 4 4
5 5 5 5 5 5 5 5 5 5 5 5 5 6 10 14 8 8 8 8 8 9 10 9 11 10 11 12 13 11 11 12 11 11 11 12 12 11 10 9 8 8 8 8 6
5 5 6 6 6 5 5 5 5 5 5 5 5 8 11 13 8 7 8 8 7 8 10 8 8 10 11 12 10 11 13 12 11 12 13 12 15 13 10 9 9 9 9 8 8
5 5 5 6 6 6 5 5 5 5 5 5 5 8 13 9 7 8 7 8 7 6 7 7 7 9 10 10 11 13 13 15 13 13 13 13 17 13 11 11 12 11 10 10 9
5 5 5 5 5 5 5 5 6 5 5 5 8 9 13 8 10 8 7 9 8 8 8 7 8 10 11 13 14 14 17 16 15 13 13 14 16 13 11 11 12 11 11 10 10
4 4 4 5 5 5 5 5 6 7 7 8 9 11 11 12 9 9 7 8 10 10 10 11 11 13 13 15 18 18 18 17 16 14 13 14 15 13 11 11 11 11 11 10 10
4 4 4 4 5 6 7 8 10 10 9 12 12 12 11 9 8 10 8 9 10 11 14 12 14 16 16 15 15 16 16 17 15 13 14 14 14 13 11 11 11 10 10 10 9
3 3 3 4 5 6 6 10 10 9 13 11 11 11 10 9 13 10 8 12 12 14 13 14 16 15 14 14 15 15 16 15 14 13 14 14 14 12 11 11 11 11 10 10 9
3 3 4 4 6 6 8 9 6 8 13 13 12 11 11 10 13 12 10 11 13 14 14 16 15 14 14 15 16 15 16 16 16 14 13 13 15 14 12 10 10 9 9 9 9
4 3 3 5 8 7 9 7 6 8 14 15 14 12 11 11 14 10 10 11 13 16 14 14 14 15 15 16 15 17 14 14 15 15 18 13 20 15 13 11 10 9 8 8 7
4 3 3 5 7 9 7 6 7 10 18 16 15 10 12 13 13 12 10 12 15 15 14 16 15 16 16 15 14 16 13 14 14 15 16 15 16 16 11 11 9 7 5 5 4
4 3 5 7 6 7 6 8 9 15 18 17 15 15 15 14 14 13 13 11 12 14 13 14 13 14 14 13 13 12 13 13 13 14 19 15 14 15 11 9 8 6 5 5 4
3 4 6 6 8 6 7 9 16 18 17 17 17 15 16 16 15 15 15 15 15 17 17 15 15 14 12 14 12 13 15 18 19 18 18 11 13 12 8 7 7 7 6 5 4
4 6 8 7 6 7 9 13 20 16 16 16 16 16 17 16 16 16 16 16 14 15 17 19 19 15 12 14 15 14 14 17 22 20 17 12 16 12 7 6 6 6 6 6 6
6 6 7 7 7 8 11 17 15 15 16 17 17 18 17 17 17 17 17 16 15 15 18 18 17 13 13 12 13 14 15 11 15 14 17 13 12 9 8 8 7 8 7 8 7
8 9 9 7 7 9 14 16 15 16 15 16 16 16 17 18 18 17 17 15 15 14 14 16 19 14 13 12 11 12 10 14 14 19 20 15 15 13 10 10 9 8 9 8 7
10 12 10 8 8 11 16 15 16 16 14 16 14 17 17 18 17 17 17 16 14 14 14 15 17 15 14 14 14 13 13 12 12 14 18 19 16 9 10 10 10 9 8 8 9
10 15 9 9 14 15 16 16 15 15 14 15 15 15 16 16 17 17 17 16 13 13 17 14 16 18 15 12 11 11 12 11 15 16 14 16 17 9 8 8 9 10 9 9 9
13 14 10 11 16 16 17 17 15 16 15 15 16 15 15 17 18 17 18 15 14 14 16 14 16 19 15 13 12 13 11 11 11 13 17 18 18 8 8 9 9 10 10 10 11
13 17 14 13 12 14 17 16 17 14 15 14 15 15 17 17 16 18 18 16 14 15 14 13 16 17 19 16 14 15 13 12 13 16 16 16 16 12 10 11 10 11 11 11 12
13 15 13 17 16 15 15 14 17 18 15 14 16 16 17 19 18 19 17 16 15 14 14 14 19 17 15 14 14 14 14 14 15 14 17 15 14 12 10 11 11 11 11 12 13
14 15 14 14 13 15 16 16 17 16 16 17 17 16 16 17 17 18 17 17 17 15 16 14 18 19 19 15 15 17 15 14 14 14 14 13 15 10 9 11 12 13 12 13 13
11 12 12 14 15 16 15 15 16 15 15 14 15 15 16 15 14 15 14 14 15 16 17 16 17 19 21 18 19 19 17 14 13 12 12 15 12 11 12 13 13 13 13 13 13